Location: Milton Keynes
(52.0316°N, 0.7531°W)
Time: 15:12:40
(UTC+01:00)

N. Korean satellite - Pass Details

Date: 26 January 2019
Orbit: 457 x 508 km, 97.2° (Epoch: 19 April)

Event Time Altitude Azimuth Distance (km) Brightness Sun altitude
Rises 07:04:34 0° 7° (N) 2,624 10.1 -7.5°
Reaches altitude 10° 07:06:46 10° 359° (N) 1,728 9.1 -7.1°
Maximum altitude 07:10:14 38° 291° (WNW) 784 7.1 -6.6°
Drops below altitude 10° 07:13:38 10° 223° (SW) 1,692 9.1 -6.2°
Sets 07:15:46 0° 215° (SW) 2,560 10.1 -5.9°
